Location: Flynn Junction
(40.1314°N, 99.5162°W)
Time: 21:53:01
(UTC+00:00)

CZ-4B R/B - Pass Details

Date: 29 October 2020
Orbit: 388 x 461 km, 97.6° (Epoch: 01 December)

Event Time Altitude Azimuth Distance (km) Brightness Sun altitude
Rises 12:03:25 0° 194° (SSW) 2,481 5.1 -12.2°
Reaches altitude 10° 12:05:45 10° 209° (SSW) 1,609 4.0 -11.8°
Maximum altitude 12:08:35 23° 264° (W) 1,016 2.6 -11.3°
Drops below altitude 10° 12:11:25 10° 319° (NW) 1,607 3.7 -10.7°
Enters shadow 12:11:43 - 322° (NW) 1,711 3.9 -10.7°
